Lapse_Rate
8.2 7.6 7.9 8.0 7.9 8.1 8.1 8.4 7.7 6.8 6.3 7.9 6.4 5.6 6.0 6.6 6.3 6.2 5.3 6.5 6.9 7.1 6.4 5.8 5.9 6.2 5.6 5.4 5.1 4.3 6.5 6.5 6.5 6.5 6.5 5.6 6.4 5.2 5.4 5.4 4.7 5.3 5.9 5.5 4.4
6.8 6.4 6.2 6.3 6.8 6.7 7.1 7.5 7.3 7.1 6.5 7.4 6.1 6.2 6.0 7.1 5.9 5.4 7.9 8.9 8.3 7.3 6.0 6.3 6.2 5.9 4.3 5.3 4.3 5.1 6.5 6.5 6.5 6.5 6.5 6.2 6.0 5.7 5.9 5.2 5.6 5.5 4.9 4.4 4.6
6.7 7.1 7.9 6.9 6.3 6.5 6.4 6.6 6.8 7.3 7.2 6.5 5.4 6.1 6.8 6.3 5.3 6.2 6.7 7.4 7.7 6.7 5.4 5.0 6.4 5.9 5.4 5.4 5.4 6.3 6.5 6.5 6.4 5.9 5.8 6.3 6.2 4.8 6.2 6.5 4.3 5.3 4.4 4.0 5.2
7.9 8.2 7.9 8.4 8.7 8.7 8.1 7.5 7.3 7.4 7.2 7.0 6.0 5.7 5.3 5.1 6.5 5.2 4.3 4.7 7.7 6.5 5.7 6.3 6.1 5.3 6.1 6.5 6.0 6.4 6.3 6.1 5.9 5.5 5.9 6.4 5.7 5.5 5.7 4.4 4.5 4.3 3.7 3.9 2.9
7.2 7.8 7.6 7.8 7.8 7.4 7.4 6.7 6.7 7.0 6.0 6.9 6.1 6.2 6.1 5.2 5.8 4.6 3.6 3.1 5.6 6.1 6.1 6.1 6.1 5.4 6.5 5.9 6.0 6.5 6.4 5.9 5.6 5.8 5.9 6.1 6.1 6.2 4.4 2.4 2.4 2.7 3.6 3.1 2.8
7.4 7.2 7.0 7.1 7.5 7.1 6.9 7.1 7.2 6.7 6.2 5.4 5.4 6.2 5.8 6.5 4.8 3.8 2.6 3.2 5.6 5.4 4.2 4.4 5.8 5.3 5.2 6.0 6.3 6.1 5.9 6.0 5.9 6.2 6.3 6.4 6.0 5.8 4.4 3.5 3.6 3.6 3.7 3.8 3.6
7.4 7.2 7.8 7.5 7.2 7.3 7.3 6.9 6.7 6.3 5.7 6.6 6.3 5.5 3.4 5.6 3.9 3.3 2.9 4.9 4.8 5.6 4.5 4.1 4.3 5.2 5.1 6.3 6.2 6.0 6.5 6.5 6.4 6.3 6.5 5.8 6.5 6.5 3.2 3.7 4.3 4.8 4.6 4.2 3.7
7.4 7.5 7.2 7.5 7.7 7.6 7.5 7.3 7.0 6.0 5.8 5.8 5.7 4.3 6.3 5.3 4.5 4.6 4.6 6.1 5.1 5.2 4.7 4.7 4.1 3.9 5.3 5.6 5.7 6.5 6.5 6.5 6.5 6.3 6.4 6.4 6.5 6.4 4.6 4.8 4.4 3.9 3.9 4.2 3.9
7.0 7.0 6.9 7.3 7.5 8.0 7.9 7.4 7.8 7.1 6.7 5.7 4.5 4.6 6.8 5.0 5.5 4.5 4.9 5.8 5.4 5.0 4.5 5.6 4.1 5.0 5.2 6.5 6.5 6.5 6.5 6.5 6.5 6.0 6.5 6.5 6.5 6.1 4.5 3.8 3.9 3.5 3.6 3.6 3.4
6.5 6.3 6.4 6.3 6.6 7.1 7.7 7.8 8.2 7.7 8.1 7.7 6.6 6.3 7.0 6.8 4.8 5.4 6.1 7.0 5.5 5.2 4.7 4.3 3.1 6.5 6.5 6.5 6.5 6.5 6.5 6.5 6.5 6.5 6.5 6.5 6.5 6.4 4.2 4.4 3.8 4.0 3.8 3.6 3.4
6.5 6.2 5.8 5.9 6.4 6.6 5.3 5.2 5.9 6.7 7.0 6.8 7.1 6.9 6.8 6.1 5.0 6.5 6.6 6.7 6.5 5.5 6.5 5.6 6.5 6.5 6.5 6.5 6.5 6.5 6.5 6.5 6.5 6.5 6.5 6.5 6.5 6.5 5.6 4.8 4.5 4.3 4.2 3.6 3.2
5.1 5.2 5.5 5.4 5.9 5.9 4.5 5.3 5.6 6.6 6.5 7.0 7.0 6.2 5.9 5.4 5.4 5.8 5.8 6.1 6.0 6.5 6.3 6.5 6.5 6.5 6.5 6.5 6.5 6.5 6.5 6.5 6.5 6.5 6.5 6.5 6.5 6.5 6.2 6.1 4.8 4.8 4.2 3.1 2.4
4.0 4.3 4.9 5.1 5.5 3.3 3.3 4.2 5.4 6.2 5.7 6.1 6.1 6.0 5.3 5.3 6.2 5.8 5.2 5.7 6.3 6.5 6.5 6.5 6.5 6.5 6.5 6.5 6.5 6.5 6.5 6.5 6.5 6.5 6.5 6.5 6.5 6.5 6.5 6.1 5.5 4.6 4.3 3.6 4.1
4.1 4.1 4.6 5.0 4.7 3.6 4.3 5.7 5.5 5.3 6.5 6.5 6.4 6.2 6.3 6.1 6.1 6.5 5.8 6.2 6.1 6.5 6.5 6.5 6.4 6.5 6.5 6.5 6.5 6.5 6.5 6.5 6.5 6.5 6.5 6.5 6.5 6.5 6.5 6.5 6.5 5.0 3.5 3.7 4.0
3.8 3.7 3.7 4.6 4.3 4.2 5.4 5.0 4.7 4.7 6.5 6.5 6.1 6.6 6.0 6.4 6.5 6.1 6.4 5.4 6.5 6.5 6.5 6.5 6.5 6.5 6.5 6.5 6.5 6.5 6.5 6.5 6.5 6.5 6.5 6.5 6.5 6.5 6.5 6.5 6.5 5.8 4.2 4.2 3.8
3.4 3.3 3.6 3.4 3.0 4.5 4.6 4.3 3.7 6.5 6.5 6.5 6.2 6.4 6.4 6.0 6.4 6.0 5.9 5.3 6.4 6.5 6.5 6.5 6.4 6.5 6.5 6.5 6.5 6.5 6.5 6.5 6.5 6.5 6.5 6.5 6.5 6.5 6.5 6.5 6.5 5.8 4.4 4.0 3.8
2.7 2.8 3.0 3.6 3.8 3.7 3.2 3.4 6.5 6.5 6.5 6.5 6.5 6.5 6.5 6.5 6.5 6.4 6.5 6.5 6.5 6.5 6.5 6.5 6.5 6.5 6.5 6.5 6.5 6.5 6.5 6.5 6.5 6.5 6.5 6.5 6.5 6.5 6.5 6.5 6.5 6.2 4.2 3.8 3.8
2.2 2.4 2.8 3.5 3.0 3.0 2.3 5.9 6.5 6.5 6.5 6.5 6.5 6.5 6.5 6.5 6.5 6.5 6.5 6.5 6.5 6.5 6.5 6.5 6.5 6.5 6.5 6.5 6.5 6.5 6.5 6.5 6.5 6.5 6.5 6.5 6.5 6.5 6.5 5.9 5.0 4.4 3.9 4.0 4.0
1.4 0.1 1.7 1.8 2.9 1.4 2.4 6.5 6.5 6.5 6.5 6.5 6.5 6.5 6.5 6.5 6.5 6.5 6.5 6.5 6.5 6.5 6.5 6.5 6.5 6.5 6.5 6.5 6.5 6.5 6.5 6.5 6.5 6.5 6.5 6.5 6.5 6.5 6.5 6.5 5.9 5.0 4.7 3.9 3.7
-0.6 0.6 2.2 2.3 2.1 0.7 5.4 6.5 6.5 6.5 6.5 6.5 6.5 6.5 6.5 6.5 6.5 6.5 6.5 6.5 6.5 6.5 6.3 6.5 6.5 6.5 6.5 6.4 6.3 6.5 6.5 6.5 6.5 6.5 6.5 6.5 6.5 6.5 6.5 6.5 6.5 6.3 5.0 3.8 3.8
0.3 2.5 2.4 1.7 1.0 1.2 6.5 6.5 6.5 6.5 6.3 6.5 6.5 6.5 6.5 6.5 6.5 6.5 6.5 6.5 6.5 6.5 6.3 6.5 6.5 6.5 6.5 6.5 6.5 6.5 6.5 6.5 6.5 6.5 6.5 6.5 6.5 6.5 6.5 6.5 6.5 5.9 4.3 3.9 4.2
0.1 5.3 1.5 0.9 3.0 4.4 6.5 6.5 6.0 6.4 6.4 6.4 6.5 6.5 6.5 6.5 6.5 6.5 6.5 6.5 5.8 6.0 6.5 6.5 6.5 6.5 6.5 6.5 6.5 6.5 6.5 6.5 6.5 6.5 6.5 6.5 6.5 6.5 6.5 6.4 5.6 4.9 4.5 4.0 3.9
1.1 1.5 1.0 1.7 6.5 6.5 6.4 6.5 6.3 6.5 6.5 6.5 6.5 6.5 6.5 6.5 6.5 6.5 6.5 6.3 5.4 6.3 6.5 6.5 6.5 6.5 6.5 6.5 6.5 6.5 6.5 6.5 6.5 6.5 6.5 6.5 6.5 6.5 6.4 6.3 4.6 4.5 3.3 3.3 3.4
1.6 6.5 1.2 0.8 2.7 6.2 6.5 6.5 6.5 6.0 6.4 6.4 6.5 6.5 6.5 6.5 6.5 6.5 6.5 6.4 5.3 5.8 6.3 6.1 6.5 6.5 6.5 6.5 6.5 6.5 6.5 6.5 6.5 6.5 6.5 6.5 6.5 6.5 6.5 6.5 5.5 3.6 2.2 1.9 2.6
1.1 5.2 4.5 6.5 5.8 6.2 6.4 6.5 6.5 6.5 6.2 5.9 6.5 6.5 6.5 6.5 6.5 6.5 6.5 6.5 6.3 6.3 6.0 6.6 6.5 6.5 6.5 6.5 6.5 6.5 6.5 6.5 6.5 6.5 6.5 6.5 6.5 6.5 6.5 6.5 4.8 3.6 2.7 2.7 2.1
3.2 4.1 3.1 3.8 4.8 6.4 6.5 6.5 6.5 6.5 6.4 6.5 6.5 6.5 6.5 6.5 6.5 6.5 6.5 6.5 6.5 6.4 6.5 6.4 6.5 6.5 6.5 6.5 6.5 6.5 6.5 6.5 6.5 6.5 6.5 6.5 6.5 6.5 6.3 6.0 4.1 3.5 2.6 1.8 2.2
1.4 2.5 3.6 5.1 5.8 6.5 6.5 6.5 6.5 6.1 5.8 5.7 6.0 6.5 6.5 6.3 4.7 4.3 4.0 4.6 5.7 6.4 6.5 6.5 6.5 6.5 6.5 6.5 6.5 6.5 6.5 6.5 6.5 6.5 6.5 6.5 6.5 6.5 6.5 6.4 5.0 3.5 2.9 1.5 0.9
Wind_Speed
26 26 23 20 18 18 16 15 17 17 16 18 7 16 24 23 15 4 6 4 3 3 5 3 1 3 3 3 4 3 4 2 1 3 4 3 3 4 2 2 4 3 3 1 4
22 23 22 17 14 13 16 17 18 18 16 15 16 17 29 22 17 15 13 6 4 6 4 2 3 4 4 3 3 5 4 4 1 1 3 2 3 4 3 4 1 2 4 7 5
35 23 32 27 14 11 13 15 12 18 17 10 10 6 25 6 9 5 19 15 5 7 3 2 1 4 4 3 3 2 3 5 1 2 2 1 1 4 2 3 7 4 3 5 2
35 35 32 28 28 26 24 23 21 18 15 18 18 22 9 3 6 3 20 16 6 8 4 3 4 4 4 4 2 5 3 4 4 2 2 2 3 5 3 6 3 0 5 4 7
34 36 36 31 27 23 21 24 23 22 20 12 24 20 8 7 5 12 25 20 7 4 5 4 4 3 6 5 3 4 2 4 3 3 1 2 3 4 8 10 8 8 7 9 8
32 34 33 33 29 31 30 35 32 28 25 22 15 6 6 11 11 15 19 11 5 5 7 7 2 3 5 4 4 1 5 4 1 1 2 3 4 5 4 4 3 4 7 7 7
28 30 30 33 33 27 26 31 32 31 28 24 23 8 21 6 12 21 13 5 4 4 5 4 3 4 3 5 1 3 4 3 1 1 2 3 6 7 6 7 7 7 7 8 8
26 26 24 29 31 31 30 23 26 32 27 28 22 13 7 8 22 7 8 6 8 6 4 5 5 7 4 2 5 4 5 2 1 3 0 1 7 4 4 5 7 8 7 7 6
24 26 25 21 18 22 34 30 24 25 19 20 16 8 6 23 6 8 5 4 4 6 6 3 6 4 5 4 4 6 2 3 2 6 2 2 6 5 4 6 9 7 4 5 4
19 21 23 25 17 6 6 21 32 11 7 11 6 9 4 3 5 7 4 2 5 4 6 7 6 4 4 4 4 4 2 3 1 2 3 3 12 10 12 6 8 4 3 3 4
16 17 18 21 25 10 4 4 5 7 15 11 12 13 4 6 4 5 4 3 3 6 4 4 7 3 2 1 3 2 2 2 1 2 3 6 8 17 10 8 6 5 2 4 5
15 14 17 18 19 18 9 5 2 5 11 16 12 6 1 2 4 13 5 3 4 5 3 6 4 2 1 1 3 3 2 2 2 2 2 5 13 14 8 3 6 5 3 5 6
18 18 17 17 6 7 6 4 1 2 5 5 4 4 3 5 4 8 6 4 6 6 6 6 3 2 1 4 3 4 4 2 1 6 1 8 7 5 5 6 5 3 2 3 5
18 15 15 15 5 2 3 1 3 1 5 10 6 4 3 4 6 3 4 2 6 5 5 6 3 2 2 4 2 2 4 2 3 5 2 5 5 6 2 4 2 2 4 5 6
18 13 11 7 1 3 0 1 2 2 6 10 6 2 5 4 1 8 4 5 4 3 5 2 2 5 6 2 2 2 2 2 0 2 4 2 3 8 4 5 7 5 4 5 6
16 11 10 5 2 1 2 3 3 6 4 7 5 5 3 5 3 4 5 6 1 5 6 3 1 1 3 2 1 2 2 4 1 2 3 4 4 6 3 4 2 4 6 6 7
15 9 5 1 1 2 3 3 5 7 4 6 3 4 4 5 4 5 4 4 3 4 4 4 2 1 1 2 5 3 5 3 5 4 5 1 2 9 6 6 5 5 6 7 7
15 5 2 0 3 4 3 5 10 6 4 3 2 5 4 5 3 4 2 4 5 3 3 4 5 1 1 2 3 1 4 4 4 2 5 2 6 6 3 4 5 5 6 7 7
8 2 2 2 3 3 5 6 7 6 3 4 1 4 4 3 1 4 3 2 2 3 4 2 3 1 1 1 2 1 2 1 1 0 2 3 7 7 1 5 6 8 7 8 7
2 2 1 3 4 4 6 3 2 2 2 1 2 3 2 2 4 3 2 2 1 2 1 2 1 2 1 2 4 2 2 2 1 3 5 5 5 6 5 9 9 8 9 8 7
3 3 2 4 2 5 4 1 3 3 4 2 2 2 3 3 2 1 1 2 2 1 3 2 4 3 2 4 6 2 1 2 2 3 3 4 6 7 7 5 7 9 9 9 8
2 3 2 2 4 2 2 5 3 2 1 1 1 1 2 2 2 2 1 3 5 4 2 0 3 3 8 3 6 5 6 6 3 4 3 2 7 4 7 5 6 8 8 8 8
2 2 3 3 4 2 1 2 3 4 3 3 2 2 2 4 3 3 3 2 7 6 5 2 1 2 6 4 1 4 5 4 2 1 8 4 6 2 3 5 7 9 9 8 8
2 3 4 4 1 6 5 2 2 3 2 2 2 0 1 1 2 3 4 5 7 6 7 3 2 6 6 4 4 4 6 9 8 4 3 12 10 13 8 8 8 8 10 9 9
3 0 3 2 2 2 1 7 3 3 2 4 2 5 5 3 2 4 3 0 1 4 4 4 5 4 7 11 10 14 13 11 16 19 10 3 14 20 5 7 8 8 9 9 10
2 2 3 1 2 3 2 5 7 3 7 4 4 6 7 6 8 8 7 5 6 2 6 3 3 2 5 12 13 16 17 18 21 21 22 23 28 28 24 15 8 10 9 9 10
1 1 4 2 0 2 4 5 7 5 4 4 8 3 5 10 6 6 6 3 5 9 7 6 3 1 5 4 7 10 12 21 9 7 18 17 27 18 14 10 9 9 8 9 10
Wind_Direction
357 349 323 301 283 270 248 223 210 230 221 223 198 204 168 148 143 122 60 264 278 175 338 331 39 91 75 69 30 80 65 86 97 156 166 360 100 347 298 26 350 336 113 310 56
356 321 316 270 280 278 234 211 218 208 217 214 194 185 148 144 101 67 11 28 43 10 28 82 107 95 54 54 21 70 86 159 241 164 137 62 90 325 56 12 301 334 74 33 54
15 53 40 69 79 103 172 200 194 197 193 149 159 174 146 160 84 44 350 351 11 11 16 353 181 79 64 51 22 79 138 150 89 118 47 88 63 322 97 278 221 188 298 313 202
22 28 38 50 60 66 79 99 109 117 131 147 158 131 144 351 96 351 342 336 332 349 322 73 53 64 97 111 47 93 61 124 165 58 66 94 313 329 219 237 140 235 293 300 318
28 27 36 47 60 57 75 89 100 107 93 111 149 136 97 53 39 322 334 333 336 20 36 100 83 99 128 122 94 87 128 90 127 120 89 32 308 258 262 264 283 294 302 297 300
33 35 34 46 58 68 82 82 86 90 93 82 73 103 72 68 333 318 325 319 28 52 37 43 95 107 93 88 78 98 107 122 186 15 24 36 311 25 294 347 290 262 276 283 287
37 38 44 52 51 61 75 79 75 76 83 92 64 79 58 29 325 317 320 339 15 62 73 14 329 76 97 90 101 95 80 40 322 317 40 68 296 240 260 330 319 326 294 294 285
31 36 43 39 42 54 54 75 86 72 70 69 59 51 69 304 316 314 334 17 39 55 80 27 60 87 54 104 36 66 47 74 215 144 219 99 266 282 106 76 325 298 292 323 24
31 30 21 19 32 51 66 62 72 80 62 51 44 54 40 320 12 322 334 63 33 28 29 35 58 74 30 76 39 16 161 206 211 202 136 175 268 285 275 353 302 325 358 56 18
24 23 16 18 16 21 55 66 60 56 56 84 99 71 348 294 304 326 299 27 68 38 30 41 47 71 36 63 189 182 178 221 152 221 191 231 267 275 284 288 284 120 83 33 1
28 11 9 16 32 53 45 49 28 28 39 58 73 90 146 275 279 349 354 13 47 43 87 26 71 110 124 66 150 137 99 74 117 142 258 239 264 278 263 234 181 157 72 1 332
10 4 357 12 19 42 40 74 37 160 62 49 45 92 195 295 1 5 7 81 70 90 72 34 87 227 239 50 90 71 101 352 295 331 311 310 285 277 291 202 154 128 35 349 333
353 349 349 348 40 45 62 60 56 354 83 59 66 7 311 346 37 350 20 11 73 59 56 104 173 292 85 41 90 36 82 33 281 319 25 325 315 335 25 95 93 60 351 315 312
347 340 339 345 54 142 60 283 353 29 76 1 11 347 345 328 35 334 22 72 45 113 89 79 345 40 53 69 24 103 353 26 359 41 286 52 280 298 268 185 182 337 308 305 294
347 341 334 7 286 55 136 244 336 60 68 318 328 215 294 53 186 356 344 36 90 88 98 258 47 30 60 359 5 189 305 289 55 26 52 343 58 269 318 266 221 285 297 285 289
349 347 334 41 39 353 4 26 52 42 18 338 324 345 20 29 29 335 17 42 85 63 46 117 198 113 180 267 177 281 25 36 76 72 14 231 133 279 218 214 214 246 258 277 297
353 345 348 106 198 300 62 47 46 72 319 316 318 355 24 21 31 32 34 29 88 80 22 14 5 4 70 54 350 46 47 355 358 4 230 200 93 248 239 217 213 240 260 280 298
338 338 347 90 166 109 51 49 67 222 196 216 323 343 36 359 8 353 65 35 24 78 97 112 345 211 185 138 186 334 126 145 221 255 269 298 240 252 255 193 225 227 249 284 278
326 20 13 260 142 94 74 52 162 206 194 164 112 66 359 5 36 46 49 108 41 47 113 122 313 60 173 56 72 355 68 32 137 229 315 254 289 297 230 259 249 248 249 260 271
78 17 317 156 126 63 69 98 74 168 139 61 108 151 116 350 41 29 17 306 46 47 109 213 94 237 210 78 19 95 147 92 70 286 282 289 276 241 270 253 237 243 240 253 254
31 38 296 120 68 50 91 106 86 57 50 30 36 93 136 144 123 24 10 311 132 309 6 77 100 296 80 212 188 94 232 185 158 183 228 300 267 214 215 218 233 232 231 236 239
65 27 330 360 51 41 106 139 182 200 143 270 211 263 130 140 163 192 216 216 174 152 166 236 175 254 229 254 200 184 189 163 143 237 224 286 273 251 224 238 223 241 233 229 233
65 266 339 65 103 33 249 152 159 154 215 200 246 210 202 170 158 176 202 186 169 161 175 183 244 339 342 1 85 211 195 184 165 272 224 171 260 296 258 251 242 245 240 232 239
71 12 332 37 59 130 150 215 183 188 178 196 233 181 64 300 266 215 198 201 192 175 142 118 212 208 200 206 152 215 213 198 191 205 217 229 279 264 251 249 270 254 247 236 229
41 324 173 296 330 111 136 170 164 211 264 174 229 214 177 209 182 230 229 354 212 195 142 148 227 196 253 262 259 254 246 221 210 220 209 194 230 260 224 239 251 263 265 241 234
91 57 8 259 298 147 165 222 197 196 160 241 219 200 199 199 192 195 174 175 202 169 166 184 262 221 266 251 258 257 250 239 234 233 243 256 273 267 274 274 261 255 269 248 237
319 78 109 303 359 113 223 210 209 173 225 211 197 189 223 234 218 220 212 204 187 162 189 171 194 51 268 329 319 284 242 218 197 209 220 236 243 269 272 250 255 268 250 248 241